Time,TemperatureF,DewpointF,PressureIn,WindDirection,WindDirectionDegrees,WindSpeedMPH,WindSpeedGustMPH,Humidity,HourlyPrecipIn,Conditions,Clouds,dailyrainin,SoftwareType,DateUTC
2015-01-29 00:01:00,46.0,40.8,30.30,North,360,7.0,7.0,82,0.00,,SKC,0.00,VWS V15.00,2015-01-29 05:01:00,
2015-01-29 00:06:00,46.0,40.8,30.30,NNE,22,5.0,8.0,82,0.00,,SKC,0.00,VWS V15.00,2015-01-29 05:06:00,
2015-01-29 00:11:00,46.0,40.8,30.29,NNE,22,6.0,6.0,82,0.00,,SKC,0.00,VWS V15.00,2015-01-29 05:11:00,
2015-01-29 00:16:00,46.0,40.8,30.30,NNE,22,4.0,6.0,82,0.00,,SKC,0.00,VWS V15.00,2015-01-29 05:16:00,
2015-01-29 00:21:00,46.0,40.8,30.29,NNW,337,5.0,5.0,82,0.00,,SKC,0.00,VWS V15.00,2015-01-29 05:21:00,
2015-01-29 00:26:00,46.0,41.1,30.29,NNE,22,8.0,9.0,83,0.00,,SKC,0.00,VWS V15.00,2015-01-29 05:26:00,
2015-01-29 00:31:00,46.0,41.1,30.29,NNW,337,8.0,11.0,83,0.00,,SKC,0.00,VWS V15.00,2015-01-29 05:31:00,
2015-01-29 00:36:00,45.0,40.2,30.29,North,360,6.0,6.0,83,0.00,,SKC,0.00,VWS V15.00,2015-01-29 05:36:00,
2015-01-29 00:41:00,46.0,41.1,30.29,NNW,337,5.0,7.0,83,0.00,,SKC,0.00,VWS V15.00,2015-01-29 05:41:00,
2015-01-29 00:46:00,46.0,41.1,30.29,North,360,6.0,8.0,83,0.00,,SKC,0.00,VWS V15.00,2015-01-29 05:46:00,
2015-01-29 00:51:00,46.0,41.1,30.29,North,360,7.0,7.0,83,0.00,,SKC,0.00,VWS V15.00,2015-01-29 05:51:00,
2015-01-29 00:56:00,45.0,40.2,30.29,NNW,337,6.0,7.0,83,0.00,,SKC,0.00,VWS V15.00,2015-01-29 05:56:00,
2015-01-29 01:01:00,45.0,40.2,30.29,NNW,337,7.0,7.0,83,0.00,,SKC,0.00,VWS V15.00,2015-01-29 06:01:00,
2015-01-29 01:06:00,45.0,40.2,30.30,North,360,6.0,7.0,83,0.00,,SKC,0.00,VWS V15.00,2015-01-29 06:06:00,
2015-01-29 01:11:00,45.0,40.2,30.30,NNW,337,8.0,8.0,83,0.00,,SKC,0.00,VWS V15.00,2015-01-29 06:11:00,
2015-01-29 01:16:00,45.0,40.2,30.30,North,360,9.0,9.0,83,0.00,,SKC,0.00,VWS V15.00,2015-01-29 06:16:00,
2015-01-29 01:21:00,45.0,40.2,30.30,North,360,7.0,7.0,83,0.00,,SKC,0.00,VWS V15.00,2015-01-29 06:21:00,
2015-01-29 01:26:00,45.0,40.2,30.30,North,360,5.0,6.0,83,0.00,,SKC,0.00,VWS V15.00,2015-01-29 06:26:00,
2015-01-29 01:31:00,46.0,40.8,30.29,NNW,337,10.0,10.0,82,0.00,,SKC,0.00,VWS V15.00,2015-01-29 06:31:00,
2015-01-29 01:36:00,46.0,40.5,30.29,North,360,4.0,4.0,81,0.00,,SKC,0.00,VWS V15.00,2015-01-29 06:36:00,
2015-01-29 01:41:00,46.0,40.2,30.30,North,360,7.0,8.0,80,0.00,,SKC,0.00,VWS V15.00,2015-01-29 06:41:00,
2015-01-29 01:46:00,46.0,40.2,30.30,North,360,7.0,9.0,80,0.00,,SKC,0.00,VWS V15.00,2015-01-29 06:46:00,
2015-01-29 01:51:00,46.0,40.2,30.29,North,360,8.0,9.0,80,0.00,,SKC,0.00,VWS V15.00,2015-01-29 06:51:00,
2015-01-29 01:56:00,46.0,39.9,30.29,NNW,337,5.0,7.0,79,0.00,,SKC,0.00,VWS V15.00,2015-01-29 06:56:00,
2015-01-29 02:01:00,46.0,39.9,30.29,North,360,7.0,7.0,79,0.00,,SKC,0.00,VWS V15.00,2015-01-29 07:01:00,
2015-01-29 02:06:00,46.0,39.9,30.29,NNE,22,4.0,6.0,79,0.00,,SKC,0.00,VWS V15.00,2015-01-29 07:06:00,
2015-01-29 02:11:00,46.0,39.5,30.29,NNE,22,6.0,6.0,78,0.00,,SKC,0.00,VWS V15.00,2015-01-29 07:11:00,
2015-01-29 02:16:00,46.0,39.5,30.29,North,360,4.0,5.0,78,0.00,,SKC,0.00,VWS V15.00,2015-01-29 07:16:00,
2015-01-29 02:21:00,46.0,39.5,30.28,NNE,22,3.0,6.0,78,0.00,,SKC,0.00,VWS V15.00,2015-01-29 07:21:00,
2015-01-29 02:26:00,46.0,39.2,30.29,NNE,22,7.0,9.0,77,0.00,,SKC,0.00,VWS V15.00,2015-01-29 07:26:00,
2015-01-29 02:31:00,46.0,39.2,30.29,NNE,22,7.0,7.0,77,0.00,,SKC,0.00,VWS V15.00,2015-01-29 07:31:00,
2015-01-29 02:36:00,46.0,38.9,30.29,NNE,22,5.0,5.0,76,0.00,,SKC,0.00,VWS V15.00,2015-01-29 07:36:00,
2015-01-29 02:41:00,46.0,38.9,30.29,NNE,22,5.0,7.0,76,0.00,,SKC,0.00,VWS V15.00,2015-01-29 07:41:00,
2015-01-29 02:46:00,46.0,38.9,30.29,NNE,22,4.0,6.0,76,0.00,,SKC,0.00,VWS V15.00,2015-01-29 07:46:00,
2015-01-29 02:51:00,46.0,38.9,30.30,North,360,8.0,9.0,76,0.00,,SKC,0.00,VWS V15.00,2015-01-29 07:51:00,
2015-01-29 02:56:00,46.0,38.9,30.30,North,360,7.0,7.0,76,0.00,,SKC,0.00,VWS V15.00,2015-01-29 07:56:00,
2015-01-29 03:01:00,46.0,38.9,30.30,North,360,7.0,7.0,76,0.00,,SKC,0.00,VWS V15.00,2015-01-29 08:01:00,
2015-01-29 03:06:00,45.0,37.9,30.30,NNW,337,6.0,6.0,76,0.00,,SKC,0.00,VWS V15.00,2015-01-29 08:06:00,
2015-01-29 03:11:00,45.0,37.9,30.29,North,360,8.0,8.0,76,0.00,,SKC,0.00,VWS V15.00,2015-01-29 08:11:00,
2015-01-29 03:16:00,45.0,37.9,30.29,North,360,6.0,9.0,76,0.00,,SKC,0.00,VWS V15.00,2015-01-29 08:16:00,
2015-01-29 03:21:00,45.0,37.9,30.29,North,360,6.0,6.0,76,0.00,,SKC,0.00,VWS V15.00,2015-01-29 08:21:00,
2015-01-29 03:26:00,45.0,37.9,30.29,North,360,4.0,5.0,76,0.00,,SKC,0.00,VWS V15.00,2015-01-29 08:26:00,
2015-01-29 03:31:00,45.0,37.9,30.29,NNE,22,9.0,9.0,76,0.00,,SKC,0.00,VWS V15.00,2015-01-29 08:31:00,
2015-01-29 03:36:00,45.0,37.6,30.29,North,360,7.0,8.0,75,0.00,,SKC,0.00,VWS V15.00,2015-01-29 08:36:00,
2015-01-29 03:42:00,45.0,37.6,30.28,NNE,22,8.0,8.0,75,0.00,,SKC,0.00,VWS V15.00,2015-01-29 08:42:00,
2015-01-29 03:47:00,45.0,37.6,30.28,NNE,22,6.0,6.0,75,0.00,,SKC,0.00,VWS V15.00,2015-01-29 08:47:00,
2015-01-29 03:52:00,45.0,37.6,30.28,North,360,5.0,6.0,75,0.00,,SKC,0.00,VWS V15.00,2015-01-29 08:52:00,
2015-01-29 03:57:00,45.0,37.9,30.28,North,360,6.0,7.0,76,0.00,,SKC,0.00,VWS V15.00,2015-01-29 08:57:00,
2015-01-29 04:02:00,45.0,37.9,30.28,North,360,7.0,7.0,76,0.00,,SKC,0.00,VWS V15.00,2015-01-29 09:02:00,
2015-01-29 04:07:00,44.0,37.3,30.28,North,360,6.0,9.0,77,0.00,,SKC,0.00,VWS V15.00,2015-01-29 09:07:00,
2015-01-29 04:11:00,44.0,37.6,30.28,NNW,337,5.0,7.0,78,0.00,,SKC,0.00,VWS V15.00,2015-01-29 09:11:00,
2015-01-29 04:16:00,44.0,37.6,30.28,NNW,337,7.0,8.0,78,0.00,,SKC,0.00,VWS V15.00,2015-01-29 09:16:00,
2015-01-29 04:21:00,44.0,37.9,30.28,North,360,6.0,7.0,79,0.00,,SKC,0.00,VWS V15.00,2015-01-29 09:21:00,
2015-01-29 04:26:00,44.0,37.9,30.28,North,360,8.0,10.0,79,0.00,,SKC,0.00,VWS V15.00,2015-01-29 09:26:00,
2015-01-29 04:31:00,44.0,37.9,30.28,North,360,6.0,7.0,79,0.00,,SKC,0.00,VWS V15.00,2015-01-29 09:31:00,
2015-01-29 04:36:00,44.0,37.9,30.28,NNW,337,4.0,6.0,79,0.00,,SKC,0.00,VWS V15.00,2015-01-29 09:36:00,
2015-01-29 04:41:00,44.0,37.9,30.28,NNW,337,5.0,6.0,79,0.00,,SKC,0.00,VWS V15.00,2015-01-29 09:41:00,
2015-01-29 04:46:00,44.0,38.2,30.28,NNW,337,7.0,7.0,80,0.00,,SKC,0.00,VWS V15.00,2015-01-29 09:46:00,
2015-01-29 04:51:00,44.0,38.2,30.27,North,360,6.0,8.0,80,0.00,,SKC,0.00,VWS V15.00,2015-01-29 09:51:00,
2015-01-29 04:56:00,44.0,38.2,30.28,North,360,7.0,7.0,80,0.00,,SKC,0.00,VWS V15.00,2015-01-29 09:56:00,
2015-01-29 05:01:00,44.0,38.2,30.28,North,360,7.0,7.0,80,0.00,,SKC,0.00,VWS V15.00,2015-01-29 10:01:00,
2015-01-29 05:06:00,44.0,38.2,30.29,North,360,8.0,8.0,80,0.00,,SKC,0.00,VWS V15.00,2015-01-29 10:06:00,
2015-01-29 05:11:00,44.0,38.2,30.28,North,360,7.0,7.0,80,0.00,,SKC,0.00,VWS V15.00,2015-01-29 10:11:00,
2015-01-29 05:16:00,44.0,38.2,30.29,North,360,4.0,6.0,80,0.00,,SKC,0.00,VWS V15.00,2015-01-29 10:16:00,
2015-01-29 05:21:00,44.0,38.2,30.29,North,360,4.0,6.0,80,0.00,,SKC,0.00,VWS V15.00,2015-01-29 10:21:00,
2015-01-29 05:26:00,44.0,38.2,30.28,North,360,8.0,9.0,80,0.00,,SKC,0.00,VWS V15.00,2015-01-29 10:26:00,
2015-01-29 05:31:00,44.0,38.2,30.28,North,360,7.0,8.0,80,0.00,,SKC,0.00,VWS V15.00,2015-01-29 10:31:00,
2015-01-29 05:36:00,44.0,38.2,30.28,NNE,22,5.0,9.0,80,0.00,,SKC,0.00,VWS V15.00,2015-01-29 10:36:00,
2015-01-29 05:41:00,44.0,38.2,30.28,North,360,7.0,11.0,80,0.00,,SKC,0.00,VWS V15.00,2015-01-29 10:41:00,
2015-01-29 05:46:00,44.0,37.9,30.28,NNE,22,7.0,7.0,79,0.00,,SKC,0.00,VWS V15.00,2015-01-29 10:46:00,
2015-01-29 05:51:00,44.0,37.9,30.28,North,360,6.0,8.0,79,0.00,,SKC,0.00,VWS V15.00,2015-01-29 10:51:00,
2015-01-29 05:56:00,44.0,37.9,30.28,North,360,6.0,7.0,79,0.00,,SKC,0.00,VWS V15.00,2015-01-29 10:56:00,
2015-01-29 06:01:00,44.0,37.9,30.28,North,360,6.0,8.0,79,0.00,,SKC,0.00,VWS V15.00,2015-01-29 11:01:00,
2015-01-29 06:06:00,44.0,38.2,30.29,North,360,4.0,8.0,80,0.00,,SKC,0.00,VWS V15.00,2015-01-29 11:06:00,
2015-01-29 06:11:00,44.0,38.2,30.29,North,360,5.0,6.0,80,0.00,,SKC,0.00,VWS V15.00,2015-01-29 11:11:00,
2015-01-29 06:16:00,44.0,38.5,30.29,North,360,6.0,7.0,81,0.00,,SKC,0.00,VWS V15.00,2015-01-29 11:16:00,
2015-01-29 06:21:00,44.0,38.5,30.29,NNW,337,6.0,7.0,81,0.00,,SKC,0.00,VWS V15.00,2015-01-29 11:21:00,
2015-01-29 06:26:00,44.0,38.5,30.29,North,360,7.0,7.0,81,0.00,,SKC,0.00,VWS V15.00,2015-01-29 11:26:00,
2015-01-29 06:31:00,43.0,37.9,30.29,NNW,337,5.0,7.0,82,0.00,,SKC,0.00,VWS V15.00,2015-01-29 11:31:00,
2015-01-29 06:36:00,43.0,37.9,30.30,North,360,8.0,9.0,82,0.00,,SKC,0.00,VWS V15.00,2015-01-29 11:36:00,
2015-01-29 06:41:00,43.0,38.2,30.30,North,360,7.0,8.0,83,0.00,,SKC,0.00,VWS V15.00,2015-01-29 11:41:00,
2015-01-29 06:46:00,43.0,38.2,30.30,North,360,7.0,8.0,83,0.00,,SKC,0.00,VWS V15.00,2015-01-29 11:46:00,
2015-01-29 06:51:00,43.0,38.2,30.30,NNW,337,6.0,7.0,83,0.00,,SKC,0.00,VWS V15.00,2015-01-29 11:51:00,
2015-01-29 06:56:00,43.0,38.2,30.31,NNW,337,5.0,5.0,83,0.00,,SKC,0.00,VWS V15.00,2015-01-29 11:56:00,
2015-01-29 07:01:00,43.0,38.5,30.31,NNW,337,4.0,5.0,84,0.00,,SKC,0.00,VWS V15.00,2015-01-29 12:01:00,
2015-01-29 07:06:00,43.0,38.5,30.31,NNW,337,6.0,6.0,84,0.00,,SKC,0.00,VWS V15.00,2015-01-29 12:06:00,
2015-01-29 07:11:00,42.0,37.5,30.31,NW,315,5.0,6.0,84,0.00,,SKC,0.00,VWS V15.00,2015-01-29 12:11:00,
2015-01-29 07:16:00,42.0,37.8,30.32,NW,315,5.0,5.0,85,0.00,,SKC,0.00,VWS V15.00,2015-01-29 12:16:00,
2015-01-29 07:21:00,42.0,37.8,30.32,NNW,337,4.0,5.0,85,0.00,,SKC,0.00,VWS V15.00,2015-01-29 12:21:00,
2015-01-29 07:26:00,42.0,38.1,30.31,North,360,4.0,6.0,86,0.00,,SKC,0.00,VWS V15.00,2015-01-29 12:26:00,
2015-01-29 07:31:00,42.0,38.1,30.31,North,360,7.0,7.0,86,0.00,,SKC,0.00,VWS V15.00,2015-01-29 12:31:00,
2015-01-29 07:36:00,43.0,38.8,30.32,North,360,4.0,5.0,85,0.00,,SKC,0.00,VWS V15.00,2015-01-29 12:36:00,
2015-01-29 07:41:00,44.0,39.5,30.32,North,360,5.0,5.0,84,0.00,,SKC,0.00,VWS V15.00,2015-01-29 12:41:00,
2015-01-29 07:46:00,44.0,38.9,30.32,North,360,4.0,7.0,82,0.00,,SKC,0.00,VWS V15.00,2015-01-29 12:46:00,
2015-01-29 07:51:00,45.0,39.8,30.33,NNW,337,8.0,11.0,82,0.00,,SKC,0.00,VWS V15.00,2015-01-29 12:51:00,
2015-01-29 07:56:00,45.0,39.5,30.32,NNE,22,5.0,8.0,81,0.00,,SKC,0.00,VWS V15.00,2015-01-29 12:56:00,
2015-01-29 08:01:00,45.0,39.5,30.33,NNW,337,8.0,10.0,81,0.00,,SKC,0.00,VWS V15.00,2015-01-29 13:01:00,
2015-01-29 08:06:00,45.0,39.2,30.33,North,360,6.0,6.0,80,0.00,,SKC,0.00,VWS V15.00,2015-01-29 13:06:00,
2015-01-29 08:11:00,45.0,39.2,30.33,NNW,337,6.0,9.0,80,0.00,,SKC,0.00,VWS V15.00,2015-01-29 13:11:00,
2015-01-29 08:16:00,46.0,40.2,30.33,NNW,337,4.0,4.0,80,0.00,,SKC,0.00,VWS V15.00,2015-01-29 13:16:00,
2015-01-29 08:21:00,46.0,39.9,30.33,North,360,9.0,9.0,79,0.00,,SKC,0.00,VWS V15.00,2015-01-29 13:21:00,
2015-01-29 08:26:00,46.0,39.9,30.33,NNW,337,4.0,5.0,79,0.00,,SKC,0.00,VWS V15.00,2015-01-29 13:26:00,
2015-01-29 08:31:00,46.0,39.9,30.33,NNW,337,8.0,8.0,79,0.00,,SKC,0.00,VWS V15.00,2015-01-29 13:31:00,
2015-01-29 08:36:00,46.0,39.9,30.34,North,360,8.0,8.0,79,0.00,,SKC,0.00,VWS V15.00,2015-01-29 13:36:00,
2015-01-29 08:41:00,47.0,40.8,30.34,NNW,337,5.0,6.0,79,0.00,,SKC,0.00,VWS V15.00,2015-01-29 13:41:00,
2015-01-29 08:46:00,47.0,40.5,30.34,North,360,8.0,10.0,78,0.00,,SKC,0.00,VWS V15.00,2015-01-29 13:46:00,
2015-01-29 08:51:00,47.0,40.5,30.34,North,360,10.0,10.0,78,0.00,,SKC,0.00,VWS V15.00,2015-01-29 13:51:00,
2015-01-29 08:56:00,48.0,41.5,30.34,North,360,4.0,4.0,78,0.00,,SKC,0.00,VWS V15.00,2015-01-29 13:56:00,
2015-01-29 09:01:00,48.0,41.2,30.35,North,360,7.0,7.0,77,0.00,,SKC,0.00,VWS V15.00,2015-01-29 14:01:00,
2015-01-29 09:06:00,49.0,42.1,30.35,NNE,22,6.0,7.0,77,0.00,,SKC,0.00,VWS V15.00,2015-01-29 14:06:00,
2015-01-29 09:11:00,49.0,41.8,30.35,North,360,9.0,10.0,76,0.00,,SKC,0.00,VWS V15.00,2015-01-29 14:11:00,
2015-01-29 09:16:00,50.0,42.7,30.35,North,360,7.0,11.0,76,0.00,,SKC,0.00,VWS V15.00,2015-01-29 14:16:00,
2015-01-29 09:21:00,51.0,43.0,30.35,North,360,8.0,8.0,74,0.00,,SKC,0.00,VWS V15.00,2015-01-29 14:21:00,
2015-01-29 09:26:00,52.0,43.6,30.35,NNW,337,10.0,10.0,73,0.00,,SKC,0.00,VWS V15.00,2015-01-29 14:26:00,
2015-01-29 09:31:00,52.0,43.6,30.35,NNW,337,7.0,8.0,73,0.00,,SKC,0.00,VWS V15.00,2015-01-29 14:31:00,
2015-01-29 09:36:00,52.0,43.3,30.36,North,360,5.0,8.0,72,0.00,,SKC,0.00,VWS V15.00,2015-01-29 14:36:00,
2015-01-29 09:41:00,53.0,44.2,30.35,North,360,6.0,7.0,72,0.00,,SKC,0.00,VWS V15.00,2015-01-29 14:41:00,
2015-01-29 09:46:00,53.0,43.9,30.36,NNW,337,5.0,8.0,71,0.00,,SKC,0.00,VWS V15.00,2015-01-29 14:46:00,
2015-01-29 09:51:00,54.0,44.8,30.36,North,360,3.0,6.0,71,0.00,,SKC,0.00,VWS V15.00,2015-01-29 14:51:00,
2015-01-29 09:56:00,55.0,45.0,30.35,NNE,22,4.0,4.0,69,0.00,,SKC,0.00,VWS V15.00,2015-01-29 14:56:00,
2015-01-29 10:01:00,55.0,44.7,30.36,North,360,3.0,6.0,68,0.00,,SKC,0.00,VWS V15.00,2015-01-29 15:01:00,
2015-01-29 10:06:00,56.0,45.6,30.36,NNE,22,4.0,5.0,68,0.00,,SKC,0.00,VWS V15.00,2015-01-29 15:06:00,
2015-01-29 10:11:00,56.0,45.6,30.35,North,360,4.0,6.0,68,0.00,,SKC,0.00,VWS V15.00,2015-01-29 15:11:00,
2015-01-29 10:16:00,57.0,46.2,30.35,NNE,22,7.0,7.0,67,0.00,,SKC,0.00,VWS V15.00,2015-01-29 15:16:00,
2015-01-29 10:21:00,57.0,45.8,30.35,NNW,337,3.0,4.0,66,0.00,,SKC,0.00,VWS V15.00,2015-01-29 15:21:00,
2015-01-29 10:26:00,57.0,45.8,30.35,North,360,3.0,5.0,66,0.00,,SKC,0.00,VWS V15.00,2015-01-29 15:26:00,
2015-01-29 10:31:00,58.0,46.3,30.35,NNE,22,6.0,8.0,65,0.00,,SKC,0.00,VWS V15.00,2015-01-29 15:31:00,
2015-01-29 10:36:00,58.0,46.3,30.35,NNE,22,4.0,8.0,65,0.00,,SKC,0.00,VWS V15.00,2015-01-29 15:36:00,
2015-01-29 10:41:00,59.0,47.3,30.35,NNE,22,2.0,4.0,65,0.00,,SKC,0.00,VWS V15.00,2015-01-29 15:41:00,
2015-01-29 10:46:00,60.0,47.8,30.35,North,360,5.0,8.0,64,0.00,,SKC,0.00,VWS V15.00,2015-01-29 15:46:00,
2015-01-29 10:51:00,60.0,47.4,30.35,ESE,112,8.0,8.0,63,0.00,,SKC,0.00,VWS V15.00,2015-01-29 15:51:00,
2015-01-29 10:56:00,60.0,47.0,30.35,South,180,5.0,9.0,62,0.00,,SKC,0.00,VWS V15.00,2015-01-29 15:56:00,
2015-01-29 11:01:00,60.0,47.0,30.35,South,180,11.0,12.0,62,0.00,,SKC,0.00,VWS V15.00,2015-01-29 16:01:00,
2015-01-29 11:06:00,60.0,47.0,30.35,South,180,5.0,9.0,62,0.00,,SKC,0.00,VWS V15.00,2015-01-29 16:06:00,
2015-01-29 11:11:00,60.0,47.0,30.34,South,180,5.0,9.0,62,0.00,,SKC,0.00,VWS V15.00,2015-01-29 16:11:00,
2015-01-29 11:16:00,61.0,47.5,30.34,ESE,112,4.0,7.0,61,0.00,,SKC,0.00,VWS V15.00,2015-01-29 16:16:00,
2015-01-29 11:21:00,61.0,47.5,30.33,South,180,5.0,6.0,61,0.00,,SKC,0.00,VWS V15.00,2015-01-29 16:21:00,
2015-01-29 11:26:00,62.0,48.0,30.34,ESE,112,11.0,11.0,60,0.00,,SKC,0.00,VWS V15.00,2015-01-29 16:26:00,
2015-01-29 11:31:00,62.0,47.5,30.34,South,180,7.0,10.0,59,0.00,,SKC,0.00,VWS V15.00,2015-01-29 16:31:00,
2015-01-29 11:36:00,62.0,47.5,30.32,NNE,22,9.0,10.0,59,0.00,,SKC,0.00,VWS V15.00,2015-01-29 16:36:00,
2015-01-29 11:41:00,62.0,47.5,30.32,ESE,112,8.0,11.0,59,0.00,,SKC,0.00,VWS V15.00,2015-01-29 16:41:00,
2015-01-29 11:46:00,62.0,47.5,30.32,ESE,112,6.0,10.0,59,0.00,,SKC,0.00,VWS V15.00,2015-01-29 16:46:00,
2015-01-29 11:51:00,63.0,48.5,30.33,ESE,112,5.0,7.0,59,0.00,,SKC,0.00,VWS V15.00,2015-01-29 16:51:00,
2015-01-29 11:56:00,63.0,48.0,30.33,ESE,112,5.0,6.0,58,0.00,,SKC,0.00,VWS V15.00,2015-01-29 16:56:00,
2015-01-29 12:01:00,63.0,47.5,30.32,ESE,112,4.0,8.0,57,0.00,,SKC,0.00,VWS V15.00,2015-01-29 17:01:00,
2015-01-29 12:06:00,63.0,47.5,30.32,ESE,112,9.0,9.0,57,0.00,,SKC,0.00,VWS V15.00,2015-01-29 17:06:00,
2015-01-29 12:11:00,64.0,48.5,30.32,ESE,112,4.0,4.0,57,0.00,,SKC,0.00,VWS V15.00,2015-01-29 17:11:00,
2015-01-29 12:16:00,64.0,48.5,30.32,South,180,6.0,6.0,57,0.00,,SKC,0.00,VWS V15.00,2015-01-29 17:16:00,
2015-01-29 12:21:00,64.0,48.0,30.32,ESE,112,7.0,9.0,56,0.00,,SKC,0.00,VWS V15.00,2015-01-29 17:21:00,
2015-01-29 12:26:00,64.0,48.0,30.31,ESE,112,3.0,4.0,56,0.00,,SKC,0.00,VWS V15.00,2015-01-29 17:26:00,
2015-01-29 12:30:00,64.0,47.5,30.32,ESE,112,4.0,6.0,55,0.00,,SKC,0.00,VWS V15.00,2015-01-29 17:30:00,
2015-01-29 12:36:00,65.0,48.0,30.31,ESE,112,9.0,9.0,54,0.00,,SKC,0.00,VWS V15.00,2015-01-29 17:36:00,
2015-01-29 12:40:00,64.0,46.5,30.30,ESE,112,4.0,6.0,53,0.00,,SKC,0.00,VWS V15.00,2015-01-29 17:40:00,
2015-01-29 12:45:00,65.0,47.5,30.30,ESE,112,9.0,11.0,53,0.00,,SKC,0.00,VWS V15.00,2015-01-29 17:45:00,
2015-01-29 12:51:00,65.0,47.0,30.30,SE,135,4.0,9.0,52,0.00,,SKC,0.00,VWS V15.00,2015-01-29 17:51:00,
2015-01-29 12:54:00,65.0,46.5,30.30,SSE,157,6.0,6.0,51,0.00,,SKC,0.00,VWS V15.00,2015-01-29 17:54:00,
2015-01-29 12:59:00,65.0,46.5,30.30,ESE,112,7.0,10.0,51,62.81,,SKC,0.00,VWS V15.00,2015-01-29 17:59:00,
2015-01-29 13:03:00,65.0,46.5,30.29,SSE,157,2.0,4.0,51,0.00,,SKC,0.00,VWS V15.00,2015-01-29 18:03:00,
2015-01-29 13:04:00,65.0,46.5,30.29,ESE,112,3.0,3.0,51,0.00,,SKC,0.00,VWS V15.00,2015-01-29 18:04:00,
2015-01-29 13:09:00,65.0,46.5,30.28,SE,135,3.0,5.0,51,0.00,,SKC,0.00,VWS V15.00,2015-01-29 18:09:00,
2015-01-29 13:14:00,66.0,47.9,30.28,ESE,112,5.0,6.0,52,0.00,,SKC,0.00,VWS V15.00,2015-01-29 18:14:00,
2015-01-29 13:19:00,66.0,47.4,30.28,ESE,112,4.0,4.0,51,0.00,,SKC,0.00,VWS V15.00,2015-01-29 18:19:00,
2015-01-29 13:24:00,66.0,46.8,30.27,South,180,0.0,4.0,50,0.00,,SKC,0.00,VWS V15.00,2015-01-29 18:24:00,
2015-01-29 13:29:00,66.0,46.3,30.27,ESE,112,4.0,4.0,49,0.00,,SKC,0.00,VWS V15.00,2015-01-29 18:29:00,
2015-01-29 13:34:00,67.0,46.7,30.27,South,180,2.0,5.0,48,0.00,,SKC,0.00,VWS V15.00,2015-01-29 18:34:00,
2015-01-29 13:39:00,67.0,46.7,30.27,ESE,112,2.0,5.0,48,0.00,,SKC,0.00,VWS V15.00,2015-01-29 18:39:00,
2015-01-29 13:44:00,67.0,46.7,30.27,SE,135,6.0,8.0,48,0.00,,SKC,0.00,VWS V15.00,2015-01-29 18:44:00,
2015-01-29 13:49:00,67.0,46.1,30.26,SE,135,10.0,11.0,47,0.00,,SKC,0.00,VWS V15.00,2015-01-29 18:49:00,
2015-01-29 13:54:00,67.0,45.6,30.26,ESE,112,4.0,6.0,46,0.00,,SKC,0.00,VWS V15.00,2015-01-29 18:54:00,
2015-01-29 13:59:00,67.0,45.0,30.26,SSE,157,6.0,8.0,45,64.81,,SKC,0.00,VWS V15.00,2015-01-29 18:59:00,
2015-01-29 14:04:00,68.0,44.7,30.25,WNW,292,3.0,4.0,43,0.00,,SKC,0.00,VWS V15.00,2015-01-29 19:04:00,
2015-01-29 14:09:00,68.0,44.7,30.25,ESE,112,3.0,3.0,43,0.00,,SKC,0.00,VWS V15.00,2015-01-29 19:09:00,
2015-01-29 14:14:00,68.0,44.7,30.25,ESE,112,5.0,5.0,43,0.00,,SKC,0.00,VWS V15.00,2015-01-29 19:14:00,
2015-01-29 14:19:00,68.0,44.1,30.25,ESE,112,5.0,6.0,42,0.00,,SKC,0.00,VWS V15.00,2015-01-29 19:19:00,
2015-01-29 14:24:00,68.0,44.7,30.24,ESE,112,4.0,5.0,43,0.00,,SKC,0.00,VWS V15.00,2015-01-29 19:24:00,
2015-01-29 14:28:00,68.0,45.3,30.24,South,180,3.0,5.0,44,0.00,,SKC,0.00,VWS V15.00,2015-01-29 19:28:00,
2015-01-29 14:33:00,68.0,45.3,30.24,West,270,0.0,2.0,44,0.00,,SKC,0.00,VWS V15.00,2015-01-29 19:33:00,
2015-01-29 14:38:00,69.0,46.2,30.23,ESE,112,4.0,5.0,44,0.00,,SKC,0.00,VWS V15.00,2015-01-29 19:38:00,
2015-01-29 14:43:00,69.0,45.6,30.23,ESE,112,3.0,6.0,43,0.00,,SKC,0.00,VWS V15.00,2015-01-29 19:43:00,
2015-01-29 14:48:00,68.0,44.7,30.23,SSW,202,2.0,2.0,43,0.00,,SKC,0.00,VWS V15.00,2015-01-29 19:48:00,
2015-01-29 14:53:00,68.0,44.7,30.23,SE,135,3.0,4.0,43,0.00,,SKC,0.00,VWS V15.00,2015-01-29 19:53:00,
2015-01-29 14:58:00,69.0,45.0,30.23,WNW,292,0.0,0.0,42,66.81,,SKC,0.00,VWS V15.00,2015-01-29 19:58:00,
2015-01-29 15:03:00,70.0,45.2,30.23,ESE,112,6.0,7.0,41,0.00,,SKC,0.00,VWS V15.00,2015-01-29 20:03:00,
2015-01-29 15:08:00,70.0,45.2,30.23,ESE,112,8.0,8.0,41,0.00,,SKC,0.00,VWS V15.00,2015-01-29 20:08:00,
2015-01-29 15:13:00,69.0,45.0,30.23,SE,135,6.0,6.0,42,0.00,,SKC,0.00,VWS V15.00,2015-01-29 20:13:00,
2015-01-29 15:18:00,68.0,44.1,30.23,SE,135,5.0,5.0,42,0.00,,SKC,0.00,VWS V15.00,2015-01-29 20:18:00,
2015-01-29 15:23:00,69.0,45.0,30.23,SSE,157,0.0,0.0,42,0.00,,SKC,0.00,VWS V15.00,2015-01-29 20:23:00,
2015-01-29 15:28:00,70.0,45.9,30.23,North,360,4.0,5.0,42,0.00,,SKC,0.00,VWS V15.00,2015-01-29 20:28:00,
2015-01-29 15:33:00,70.0,44.6,30.23,ESE,112,5.0,5.0,40,0.00,,SKC,0.00,VWS V15.00,2015-01-29 20:33:00,
2015-01-29 15:38:00,70.0,44.6,30.23,South,180,1.0,4.0,40,0.00,,SKC,0.00,VWS V15.00,2015-01-29 20:38:00,
2015-01-29 15:43:00,70.0,44.6,30.23,ESE,112,9.0,11.0,40,0.00,,SKC,0.00,VWS V15.00,2015-01-29 20:43:00,
2015-01-29 15:48:00,69.0,43.7,30.23,SE,135,8.0,8.0,40,0.00,,SKC,0.00,VWS V15.00,2015-01-29 20:48:00,
2015-01-29 15:53:00,69.0,43.7,30.23,SSE,157,5.0,5.0,40,0.00,,SKC,0.00,VWS V15.00,2015-01-29 20:53:00,
2015-01-29 15:58:00,69.0,43.7,30.22,SE,135,2.0,2.0,40,67.81,,SKC,0.00,VWS V15.00,2015-01-29 20:58:00,
2015-01-29 16:03:00,69.0,43.7,30.23,ESE,112,3.0,3.0,40,0.00,,SKC,0.00,VWS V15.00,2015-01-29 21:03:00,
2015-01-29 16:08:00,69.0,43.7,30.23,ESE,112,8.0,8.0,40,0.00,,SKC,0.00,VWS V15.00,2015-01-29 21:08:00,
2015-01-29 16:13:00,69.0,43.7,30.23,ESE,112,4.0,5.0,40,0.00,,SKC,0.00,VWS V15.00,2015-01-29 21:13:00,
2015-01-29 16:18:00,69.0,43.7,30.23,ESE,112,2.0,3.0,40,0.00,,SKC,0.00,VWS V15.00,2015-01-29 21:18:00,
2015-01-29 16:23:00,70.0,44.6,30.23,ESE,112,4.0,4.0,40,0.00,,SKC,0.00,VWS V15.00,2015-01-29 21:23:00,
2015-01-29 16:28:00,70.0,44.6,30.23,ESE,112,0.0,0.0,40,0.00,,SKC,0.00,VWS V15.00,2015-01-29 21:28:00,
2015-01-29 16:33:00,70.0,44.6,30.23,NNW,337,5.0,6.0,40,0.00,,SKC,0.00,VWS V15.00,2015-01-29 21:33:00,
2015-01-29 16:38:00,70.0,45.2,30.24,North,360,4.0,6.0,41,0.00,,SKC,0.00,VWS V15.00,2015-01-29 21:38:00,
2015-01-29 16:43:00,70.0,45.2,30.24,South,180,6.0,6.0,41,0.00,,SKC,0.00,VWS V15.00,2015-01-29 21:43:00,
2015-01-29 16:48:00,69.0,44.3,30.23,ESE,112,2.0,4.0,41,0.00,,SKC,0.00,VWS V15.00,2015-01-29 21:48:00,
2015-01-29 16:53:00,69.0,44.3,30.24,SE,135,3.0,3.0,41,0.00,,SKC,0.00,VWS V15.00,2015-01-29 21:53:00,
2015-01-29 16:58:00,69.0,44.3,30.24,South,180,3.0,4.0,41,67.81,,SKC,0.00,VWS V15.00,2015-01-29 21:58:00,
2015-01-29 17:03:00,69.0,44.3,30.24,NW,315,0.0,1.0,41,0.00,,SKC,0.00,VWS V15.00,2015-01-29 22:03:00,
2015-01-29 17:08:00,70.0,44.6,30.25,ESE,112,1.0,3.0,40,0.00,,SKC,0.00,VWS V15.00,2015-01-29 22:08:00,
2015-01-29 17:13:00,70.0,44.6,30.25,ESE,112,3.0,4.0,40,0.00,,SKC,0.00,VWS V15.00,2015-01-29 22:13:00,
2015-01-29 17:18:00,69.0,43.7,30.25,ESE,112,3.0,4.0,40,0.00,,SKC,0.00,VWS V15.00,2015-01-29 22:18:00,
2015-01-29 17:23:00,69.0,43.7,30.25,ESE,112,3.0,3.0,40,0.00,,SKC,0.00,VWS V15.00,2015-01-29 22:23:00,
2015-01-29 17:28:00,69.0,43.7,30.25,ESE,112,3.0,3.0,40,0.00,,SKC,0.00,VWS V15.00,2015-01-29 22:28:00,
2015-01-29 17:33:00,69.0,43.7,30.25,ESE,112,2.0,2.0,40,0.00,,SKC,0.00,VWS V15.00,2015-01-29 22:33:00,
2015-01-29 17:38:00,69.0,43.7,30.25,South,180,3.0,4.0,40,0.00,,SKC,0.00,VWS V15.00,2015-01-29 22:38:00,
2015-01-29 17:43:00,69.0,43.7,30.24,ESE,112,3.0,4.0,40,0.00,,SKC,0.00,VWS V15.00,2015-01-29 22:43:00,
2015-01-29 17:48:00,68.0,42.8,30.24,South,180,3.0,3.0,40,0.00,,SKC,0.00,VWS V15.00,2015-01-29 22:48:00,
2015-01-29 17:53:00,68.0,43.5,30.24,ESE,112,4.0,4.0,41,0.00,,SKC,0.00,VWS V15.00,2015-01-29 22:53:00,
2015-01-29 17:58:00,68.0,43.5,30.24,South,180,3.0,4.0,41,67.81,,SKC,0.00,VWS V15.00,2015-01-29 22:58:00,
2015-01-29 18:03:00,68.0,44.1,30.25,South,180,1.0,2.0,42,0.00,,SKC,0.00,VWS V15.00,2015-01-29 23:03:00,
2015-01-29 18:08:00,67.0,43.2,30.25,WNW,292,3.0,4.0,42,0.00,,SKC,0.00,VWS V15.00,2015-01-29 23:08:00,
2015-01-29 18:13:00,67.0,43.8,30.25,West,270,2.0,2.0,43,0.00,,SKC,0.00,VWS V15.00,2015-01-29 23:13:00,